Location: *
(29.1167°S, 130.0000°E)
Time: 04:44:35
(UTC+00:00)

Cosmos 1300 - Pass Details

Date: 21 July 2019
Orbit: 512 x 515 km, 82.5° (Epoch: 20 August)

Event Time Altitude Azimuth Distance (km) Brightness Sun altitude
Rises 09:20:42 0° 25° (NNE) 2,613 6.2 -8.6°
Reaches altitude 10° 09:23:13 10° 42° (NE) 1,738 5.1 -9.1°
Maximum altitude 09:26:03 20° 90° (E) 1,235 4.0 -9.7°
Enters shadow 09:28:42 11° 136° (SE) 1,692 4.8 -10.3°
